Regional Weather Roundup
Issued by NWS Northern Indiana

Home | Current Version | Previous Version | Graphics & Text | Print | Product List | Glossary On
Versions: 1 2 3 4 5 6 7 8 9 10 11 12 13 14 15 16 17 18 19 20 21 22 23 24 25 26 27 28 29 30 31 32 33 34 35 36 37 38 39 40 41 42 43 44 45 46 47 48 49 50
000
ASUS43 KIWX 100010
RWRIWX

KIWX WEATHER ROUNDUP
NATIONAL WEATHER SERVICE NORTHERN INDIANA
700 PM EST TUE FEB 09 2016

NOTE: "FAIR" INDICATES FEW OR NO CLOUDS BELOW 12,000 FEET WITH NO
SIGNIFICANT WEATHER AND/OR OBSTRUCTIONS TO VISIBILITY.

* THESE STATIONS ARE NOT UNDER NWS QUALITY CONTROL. THEY ALSO MAY NOT
  REPORT WEATHER SUCH AS PRECIPITATION OR FOG.

INZ001>027-100100-
NORTHERN INDIANA

CITY           SKY/WX    TMP DP  RH WIND       PRES   REMARKS
GARY*          CLOUDY    19   9  63 NW17      29.93R WCI   4
VALPARAISO     LGT SNOW  17  11  77 MISG      29.90R
6HR MIN TEMP:  17; 6HR MAX TEMP:  21; 6HR PCP: TRACE;

MICHIGAN CITY* LGT SNOW  19  16  86 NW12      29.89R WCI   7
LAPORTE*       LGT SNOW  19  17  89 W8        29.88R WCI   9
6HR MIN TEMP:  19; 6HR MAX TEMP:  24;

KNOX*          CLOUDY    18  12  79 W14       29.89R WCI   4
SOUTH BEND     LGT SNOW  19  16  88 W13       29.85R FOG     WCI   6
6HR MIN TEMP:  19; 6HR MAX TEMP:  24; 6HR PCP: TRACE;

ELKHART*       LGT SNOW  21  18  86 W12       29.84R WCI   9
GOSHEN         LGT SNOW  21  16  81 W16       29.83R WCI   7
6HR MIN TEMP:  21; 6HR MAX TEMP:  27; 6HR PCP: TRACE;

MONTICELLO*    CLOUDY    17   8  67 W10       29.91R WCI   4
6HR MIN TEMP:  17; 6HR MAX TEMP:  21;

LOGANSPORT*    FLURRIES  19   9  63 W13G18    29.90R WCI   7
ROCHESTER*     FLURRIES  21  14  73 W12       29.88R WCI   9
WARSAW*        FLURRIES  19  14  79 W16G22    29.84R WCI   5
ANGOLA*        CLOUDY    23  19  86 W13       29.75R WCI  11
FORT WAYNE     FLURRIES  21  17  84 W16       29.83R WCI   7
6HR MIN TEMP:  21; 6HR MAX TEMP:  36; 6HR PCP: TRACE;

HUNTINGTON*    CLOUDY    20  11  67 W9G16     29.84R WCI   9
6HR MIN TEMP:  20; 6HR MAX TEMP:  24;

PERU/GRISSOM   FLURRIES  18  13  82 W17       29.86R WCI   3
6HR MIN TEMP:  18; 6HR MAX TEMP:  22; 6HR PCP: TRACE;

MARION*        FLURRIES  19   8  62 W17       29.88R WCI   3
6HR MIN TEMP:  -1; 6HR MAX TEMP:  59;


$$
INZ028>050-100100-
CENTRAL INDIANA

CITY           SKY/WX    TMP DP  RH WIND       PRES   REMARKS
LAFAYETTE      LGT SNOW  15  10  80 NW12      29.94R WCI   2
6HR MIN TEMP:  15; 6HR MAX TEMP:  21; 6HR PCP: TRACE;

KOKOMO*        CLOUDY    18  10  73 W20       29.88R WCI   1
6HR MIN TEMP:  18; 6HR MAX TEMP:  21;

MUNCIE*        LGT SNOW  20  14  77 W12       29.86R WCI   8
6HR MIN TEMP:  20; 6HR MAX TEMP:  24; 6HR PCP: TRACE;

INDIANAPOLIS   FLURRIES  17  10  74 W14       29.92R WCI   3
6HR MIN TEMP:  17; 6HR MAX TEMP:  23; 6HR PCP: TRACE;


$$
MIZ043>046-050>051-056>058-064>065-071>073-077>080-100100-
SOUTHWEST LOWER MICHIGAN

CITY           SKY/WX    TMP DP  RH WIND       PRES   REMARKS
BATTLE CREEK   FLURRIES  24  17  74 NW16G25   29.76R WCI  11
6HR MIN TEMP:  24; 6HR MAX TEMP:  26; 6HR PCP: TRACE;

BENTON HARBOR  LGT SNOW  23  18  81 NW13G20   29.84R VSB 1   WCI  11
6HR MIN TEMP:  23; 6HR MAX TEMP:  25; 6HR PCP:  0.01;

COLDWATER*     FLURRIES  24  19  81 W17G23    29.76R WCI  11
6HR MIN TEMP:  24; 6HR MAX TEMP:  28;

HILLSDALE*     FLURRIES  24  19  80 W12G23    29.71R WCI  13
6HR MIN TEMP:  24; 6HR MAX TEMP:  26;

HOLLAND        LGT SNOW  24  19  81 NW8       29.81R WCI  15
6HR MIN TEMP:  24; 6HR MAX TEMP:  27; 6HR PCP:  0.04;

GRAND RAPIDS   FLURRIES  24  18  77 NW14      29.76R WCI  12
6HR MIN TEMP:  24; 6HR MAX TEMP:  27; 6HR PCP: TRACE;

KALAMAZOO      FLURRIES  24  17  74 NW14G21   29.78R WCI  12
6HR MIN TEMP:  24; 6HR MAX TEMP:  27; 6HR PCP: TRACE;

STURGIS*       FLURRIES  22  18  85 W8G16     29.78R WCI  13
6HR MIN TEMP:  22; 6HR MAX TEMP:  27;

THREE RIVERS*  LGT SNOW  24  20  86 W13       29.80R WCI  12
6HR MIN TEMP:  24; 6HR MAX TEMP:  28;


$$
OHZ001>008-015>018-024>025-100100-
NORTHWEST OHIO

CITY           SKY/WX    TMP DP  RH WIND       PRES   REMARKS
DEFIANCE       CLOUDY    27  17  66 W10G18    29.78R WCI  17
6HR MIN TEMP:  27; 6HR MAX TEMP:  31;

FINDLAY        CLOUDY    28  18  66 W17       29.74R WCI  16
6HR MIN TEMP:  28; 6HR MAX TEMP:  31;

TOLEDO EXPRESS CLOUDY    27  18  69 W20G26    29.73R WCI  13
6HR MIN TEMP:  27; 6HR MAX TEMP:  29; 6HR PCP: TRACE;

TOLEDO METCALF CLOUDY    28  19  69 W21G28    29.73R WCI  15
6HR MIN TEMP:  28; 6HR MAX TEMP:  32; 6HR PCP: TRACE;

LIMA           FLURRIES  24  21  88 W18       29.77R WCI  10
6HR MIN TEMP:  24; 6HR MAX TEMP:  26; 6HR PCP: TRACE;


$$
AND FOR LAKE MICHIGAN COASTAL AND OPEN LAKE BUOY OBSERVATIONS

STATION/POSITION TEMP    WIND        PRES    VSBY  WAVE
                 AIR SEA DIR/SP/G                  HT/PER
                 (F)     (DEG/KT/KT) (MB)    (MI)  (FT/S)
CALUMET HARBOR    17     280/  9/ 14 1012.1R
MICHIGAN CITY     20     270/ 22/ 26   N/A
BURNS HARBOR      20     300/ 15/ 19 1012.5R
SAINT JOSEPH      24     270/ 17/ 23 1011.9R

$$
&&



USA.gov is the U.S. government's official web portal to all federal, state and local government web resources and services.